Meteo pe oră la

Astăzi, 20 Ianuarie, Miercuri

Timp Temperatura Precipitaţii Vânt Presiune Umiditate
00:00 +10°C° 0 mm 1 m/s 542 mmHg 74%
01:00 +10°C° 0 mm 1 m/s 542 mmHg 76%
02:00 +9°C° 0 mm 1 m/s 542 mmHg 78%
03:00 +9°C° 0 mm 1 m/s 542 mmHg 81%
04:00 +9°C° 0 mm 1 m/s 542 mmHg 84%
05:00 +8°C° 0 mm 1 m/s 542 mmHg 87%
06:00 +9°C° 0 mm 1 m/s 542 mmHg 84%
07:00 +9°C° 0 mm 1 m/s 543 mmHg 81%
08:00 +10°C° 0 mm 1 m/s 544 mmHg 78%
09:00 +12°C° 0 mm 1 m/s 545 mmHg 69%
10:00 +14°C° 0 mm 2 m/s 545 mmHg 60%
11:00 +16°C° 0 mm 2 m/s 546 mmHg 51%
12:00 +16°C° 0 mm 2 m/s 546 mmHg 49%
13:00 +17°C° 0 mm 2 m/s 545 mmHg 48%
14:00 +17°C° 0 mm 3 m/s 545 mmHg 46%
15:00 +16°C° 0 mm 2 m/s 544 mmHg 52%
16:00 +15°C° 0 mm 2 m/s 544 mmHg 58%
17:00 +14°C° 0 mm 2 m/s 543 mmHg 64%
18:00 +13°C° 0 mm 2 m/s 543 mmHg 69%
19:00 +12°C° 0 mm 1 m/s 543 mmHg 74%
20:00 +11°C° 0 mm 1 m/s 543 mmHg 79%
21:00 +10°C° 0 mm 1 m/s 543 mmHg 81%
22:00 +10°C° 0 mm 1 m/s 543 mmHg 83%
23:00 +9°C° 0 mm 1 m/s 543 mmHg 86%

Mâine, 21 Ianuarie, Joi

Timp Temperatura Precipitaţii Vânt Presiune Umiditate
00:00 +9°C° 0 mm 1 m/s 543 mmHg 87%
01:00 +9°C° 0 mm 1 m/s 542 mmHg 87%
02:00 +8°C° 0 mm 1 m/s 542 mmHg 88%
03:00 +8°C° 0 mm 1 m/s 542 mmHg 88%
04:00 +8°C° 0 mm 1 m/s 542 mmHg 88%
05:00 +8°C° 0 mm 1 m/s 542 mmHg 87%
06:00 +9°C° 0 mm 1 m/s 543 mmHg 82%
07:00 +10°C° 0 mm 0 m/s 544 mmHg 76%
08:00 +11°C° 0 mm 0 m/s 544 mmHg 70%
09:00 +13°C° 0 mm 0 m/s 545 mmHg 59%
10:00 +16°C° 0 mm 1 m/s 546 mmHg 48%
11:00 +19°C° 0 mm 1 m/s 547 mmHg 37%
12:00 +20°C° 0 mm 1 m/s 546 mmHg 35%
13:00 +19°C° 0 mm 2 m/s 546 mmHg 34%
14:00 +19°C° 0 mm 2 m/s 545 mmHg 32%
15:00 +18°C° 0 mm 2 m/s 544 mmHg 39%
16:00 +16°C° 0 mm 2 m/s 543 mmHg 45%
17:00 +15°C° 0 mm 1 m/s 542 mmHg 51%
18:00 +14°C° 0 mm 1 m/s 542 mmHg 56%
19:00 +12°C° 0 mm 1 m/s 542 mmHg 60%
20:00 +11°C° 0 mm 1 m/s 542 mmHg 65%
21:00 +11°C° 0 mm 1 m/s 542 mmHg 66%
22:00 +10°C° 0 mm 1 m/s 541 mmHg 68%
23:00 +10°C° 0 mm 1 m/s 541 mmHg 69%

Poimâine, 22 Ianuarie, Vineri

Timp Temperatura Precipitaţii Vânt Presiune Umiditate
00:00 +10°C° 0 mm 1 m/s 541 mmHg 70%
01:00 +10°C° 0 mm 1 m/s 541 mmHg 71%
02:00 +9°C° 0 mm 1 m/s 541 mmHg 71%
03:00 +9°C° 0 mm 1 m/s 540 mmHg 72%
04:00 +9°C° 0 mm 1 m/s 540 mmHg 73%
05:00 +8°C° 0 mm 1 m/s 540 mmHg 74%
06:00 +9°C° 0 mm 0 m/s 541 mmHg 68%
07:00 +10°C° 0 mm 0 m/s 543 mmHg 63%
08:00 +12°C° 0 mm 0 m/s 544 mmHg 57%
09:00 +14°C° 0 mm 0 m/s 545 mmHg 50%
10:00 +18°C° 0 mm 1 m/s 545 mmHg 43%
11:00 +20°C° 0 mm 1 m/s 546 mmHg 36%
12:00 +20°C° 0 mm 1 m/s 546 mmHg 34%
13:00 +20°C° 0 mm 1 m/s 545 mmHg 32%
14:00 +20°C° 0 mm 2 m/s 544 mmHg 30%
15:00 +18°C° 0 mm 2 m/s 544 mmHg 36%
16:00 +18°C° 0 mm 1 m/s 543 mmHg 41%
17:00 +16°C° 0 mm 1 m/s 542 mmHg 46%
18:00 +14°C° 0 mm 1 m/s 542 mmHg 50%
19:00 +13°C° 0 mm 1 m/s 542 mmHg 55%
20:00 +12°C° 0 mm 1 m/s 542 mmHg 60%
21:00 +11°C° 0 mm 1 m/s 541 mmHg 61%
22:00 +11°C° 0 mm 1 m/s 541 mmHg 63%
23:00 +11°C° 0 mm 1 m/s 541 mmHg 65%

23 Ianuarie, Sâmbătă

Timp Temperatura Precipitaţii Vânt Presiune Umiditate
00:00 +10°C° 0 mm 1 m/s 541 mmHg 65%
01:00 +10°C° 0 mm 1 m/s 541 mmHg 66%
02:00 +10°C° 0 mm 1 m/s 541 mmHg 66%
03:00 +10°C° 0 mm 1 m/s 541 mmHg 68%
04:00 +9°C° 0 mm 1 m/s 540 mmHg 69%
05:00 +9°C° 0 mm 1 m/s 540 mmHg 70%
06:00 +9°C° 0 mm 0 m/s 541 mmHg 67%
07:00 +11°C° 0 mm 0 m/s 542 mmHg 63%
08:00 +12°C° 0 mm 0 m/s 543 mmHg 59%
09:00 +14°C° 0 mm 0 m/s 544 mmHg 51%
10:00 +18°C° 0 mm 1 m/s 545 mmHg 44%
11:00 +19°C° 0 mm 1 m/s 546 mmHg 37%
12:00 +20°C° 0 mm 1 m/s 545 mmHg 35%
13:00 +19°C° 0 mm 2 m/s 545 mmHg 34%
14:00 +19°C° 0 mm 2 m/s 544 mmHg 33%
15:00 +18°C° 0 mm 2 m/s 543 mmHg 38%
16:00 +16°C° 0 mm 2 m/s 543 mmHg 43%
17:00 +15°C° 0 mm 1 m/s 542 mmHg 48%
18:00 +14°C° 0 mm 1 m/s 542 mmHg 51%
19:00 +13°C° 0 mm 1 m/s 542 mmHg 54%
20:00 +12°C° 0 mm 1 m/s 542 mmHg 58%
21:00 +11°C° 0 mm 1 m/s 541 mmHg 58%
22:00 +11°C° 0 mm 1 m/s 541 mmHg 58%
23:00 +11°C° 0 mm 1 m/s 541 mmHg 59%

24 Ianuarie, Duminică

Timp Temperatura Precipitaţii Vânt Presiune Umiditate
00:00 +10°C° 0 mm 1 m/s 541 mmHg 59%
01:00 +10°C° 0 mm 1 m/s 540 mmHg 59%
02:00 +10°C° 0 mm 1 m/s 540 mmHg 60%
03:00 +10°C° 0 mm 1 m/s 540 mmHg 60%
04:00 +9°C° 0 mm 1 m/s 540 mmHg 60%
05:00 +9°C° 0 mm 1 m/s 540 mmHg 60%
06:00 +10°C° 0 mm 0 m/s 541 mmHg 56%
07:00 +11°C° 0 mm 0 m/s 542 mmHg 53%
08:00 +12°C° 0 mm 0 m/s 543 mmHg 50%
09:00 +15°C° 0 mm 1 m/s 544 mmHg 44%
10:00 +18°C° 0 mm 1 m/s 544 mmHg 38%
11:00 +19°C° 0 mm 1 m/s 545 mmHg 32%
12:00 +19°C° 0 mm 2 m/s 545 mmHg 31%
13:00 +19°C° 0 mm 2 m/s 544 mmHg 30%
14:00 +19°C° 0 mm 3 m/s 544 mmHg 28%
15:00 +18°C° 0 mm 2 m/s 543 mmHg 33%
16:00 +16°C° 0 mm 2 m/s 542 mmHg 37%
17:00 +15°C° 0 mm 2 m/s 541 mmHg 42%
18:00 +14°C° 0 mm 2 m/s 541 mmHg 45%
19:00 +13°C° 0 mm 1 m/s 541 mmHg 49%
20:00 +12°C° 0 mm 1 m/s 541 mmHg 52%
21:00 +11°C° 0 mm 1 m/s 541 mmHg 56%
22:00 +11°C° 0 mm 1 m/s 541 mmHg 59%
23:00 +10°C° 0 mm 1 m/s 540 mmHg 62%

25 Ianuarie, Luni

Timp Temperatura Precipitaţii Vânt Presiune Umiditate
00:00 +10°C° 0 mm 1 m/s 540 mmHg 63%
01:00 +9°C° 0 mm 1 m/s 540 mmHg 65%
02:00 +9°C° 0 mm 1 m/s 539 mmHg 66%
03:00 +9°C° 0 mm 1 m/s 539 mmHg 66%
04:00 +8°C° 0 mm 1 m/s 539 mmHg 66%
05:00 +8°C° 0 mm 1 m/s 539 mmHg 67%
06:00 +9°C° 0 mm 1 m/s 540 mmHg 62%
07:00 +11°C° 0 mm 1 m/s 541 mmHg 57%
08:00 +12°C° 0 mm 1 m/s 542 mmHg 52%
09:00 +14°C° 0 mm 1 m/s 543 mmHg 44%
10:00 +16°C° 0 mm 1 m/s 544 mmHg 37%
11:00 +19°C° 0 mm 1 m/s 545 mmHg 30%
12:00 +18°C° 0 mm 2 m/s 544 mmHg 29%
13:00 +19°C° 0 mm 2 m/s 543 mmHg 29%
14:00 +19°C° 0 mm 3 m/s 543 mmHg 29%
15:00 +17°C° 0 mm 2 m/s 542 mmHg 35%
16:00 +16°C° 0 mm 2 m/s 541 mmHg 41%
17:00 +15°C° 0 mm 2 m/s 541 mmHg 48%
18:00 +13°C° 0 mm 2 m/s 540 mmHg 52%
19:00 +12°C° 0 mm 1 m/s 540 mmHg 57%
20:00 +11°C° 0 mm 1 m/s 540 mmHg 61%
21:00 +10°C° 0 mm 1 m/s 540 mmHg 62%
22:00 +10°C° 0 mm 1 m/s 540 mmHg 62%
23:00 +10°C° 0 mm 1 m/s 540 mmHg 63%
Arată mai mult

Formular de consimțământ

Meteoprog și furnizorii noștri de servicii pot stoca și accesa date personale, precum cookies, identificatori de dispozitiv sau alte tehnologii similare pe dispozitivul dumneavoastră și procesa astfel de date pentru a personaliza conținutul și reclamele, dar și pentru a oferi caracteristici de social media și pentru a analiza traficul.

  • Stocarea și/sau accesarea informațiilor pe dispozitivul dumneavoastră

    Cookies, identificatori de dispozitiv sau alte informații pot fi stocate sau accesate pe dispozitiv în scopurile indicate mai sus.

  • Reclame și conținut personalizat, evaluarea reclamelor și a conținutului, informații despre audiențe și dezvoltarea produselor

    Reclamele și conținutul pot fi personalizate pe baza unui profil. Pot fi adăugate date suplimentare pentru a personaliza mai bine reclamele și conținutul. Performanța reclamelor și conținutului poate fi măsurată. Pot fi obținute informații despre utilizatorii care au văzut reclamele și conținutul. Aceste date pot fi utilizate pentru a dezvolta sau îmbunătăți experiența utilizatorilor, sistemele și software-ul.

Dând clic pe ‘Sunt de acord’, permiteți utilizarea cookie-urilor menționate, a identificatorilor de dispozitiv, balizelor web sau altor tehnologii similare. Setările pot fi modificate din browser-ul dispozitivului dumneavoastră.

În anumite scopuri, interesele legitime pot prima asupra consimțământului. Puteți citi mai multe informații în acest sens în Politica privind Confidențialitatea Datelor și Cookie.